"Pseudo-MPEC" for MRV8005

Created 2026 Sep 2 15:35:06 UT using Find_Orb

Click here for an explanation of pseudo-MPECs

 
 Astrometry: 
     MRV8005 0C2026 07 25.58641823 30 48.902-01 16 20.27   ~92C5 21.94wXNEOCPF51
     MRV8005 0C2026 07 25.59705623 30 49.283-01 16 10.91   ~92C5 21.86wXNEOCPF51
     MRV8005 0C2026 07 25.60785323 30 49.654-01 16 01.83   ~92C5 22.00wXNEOCPF51
     MRV8005 0C2026 08 09.46312823 36 32.500+01 59 59.62   ~92C5 21.11wXNEOCPF52
     MRV8005 0C2026 08 09.47523323 36 32.506+02 00 08.25   ~92C5 21.18wXNEOCPF52
     MRV8005 0C2026 08 09.48733023 36 32.525+02 00 16.95   ~92C5 21.29wXNEOCPF52
     MRV8005 0C2026 08 09.49946923 36 32.532+02 00 25.68   ~92C5 21.28wXNEOCPF52
     MRV8005* C2026 08 26.75732623 32 42.828+04 53 14.33   ~92AZ 21.29gWNEOCPO18
     MRV8005  C2026 08 26.88660923 32 38.378+04 54 15.16   ~92AZ 20.87rWNEOCPO18
     MRV8005  C2026 09 01.76318323 29 17.975+05 35 26.64   ~92AZ 21.01gWNEOCPO18
     MRV8005  C2026 09 01.84987323 29 14.300+05 35 58.71   ~92AZ 20.67rWNEOCPO18

Station data:
(F51) Pan-STARRS 1, Haleakala  (N20.707234 W156.255910)  US/Hawaii.
   Observers J. Herman, T. Lowe, P. Minguez, A. Schultz, I. Smith. Measurers
   K. Chambers, T. de Boer, J. Fairlamb, H. Gao, M. Huber, C.-C. Lin, E.
   Magnier, Y. Ramanjooloo, R. Wainscoat, R. Weryk. 1.8-m Ritchey-Chrétien +
   CCD.
(F52) Pan-STARRS 2, Haleakala  (N20.707382 W156.255910)  US/Hawaii.
   Observers J. Herman, T. Lowe, P. Minguez, A. Schultz, I. Smith. Measurers
   K. Chambers, T. de Boer, J. Fairlamb, H. Gao, M. Huber, C.-C. Lin, E.
   Magnier, Y. Ramanjooloo, R. Wainscoat, R. Weryk. 1.8-m Ritchey-Chrétien +
   CCD.
(O18) WFST, Lenghu  (N38.607601 E93.895220)  China.  Observers K. Yan, Z. Q.
   Li, J. Z. Zhu, N. Jiang, Z. Y. Liu. Measurers B. Li, H. B. Zhao, Z. J. Xu,
   G. T. Zhaori. 2.5-m f/2.48 reflector + CCD.

Orbital elements:  MRV8005
   Perihelion 2026 Aug 2.025450 +/- 0.00948 TT =  0:36:38.9 (JD 2461254.525450)
Epoch 2026 Sep  1.0 TT = JDT 2461284.5   Earth MOID: 0.5901      AutoNEOCP
M   6.890817470 +/- 0.0014          (J2000 ecliptic)
n   0.229888940 +/- 3.38e-5         Peri.   11.348780 +/- 0.0055
a   2.639109018 +/- 0.000259        Node   316.485848 +/- 0.0007
e   0.39317463 +/- 5.21e-5          Incl.    6.608691 +/- 0.00031
P   4.28732                H 19.97  G  0.15   U  5.8
q 1.601478289 +/- 2.68e-5    Q 3.676739746 +/- 0.000498
From 11 observations 2026 July 25-Sept. 1; mean residual 0".08
Residuals in arcseconds: 
260725 F51  .01-  .16-    260809 F52  .07-  .02-    260826 O18  .16-  .06+    
260725 F51  .08+  .14+    260809 F52  .05+  .02-    260901 O18  .14+  .02-    
260725 F51  .07-  .02+    260809 F52  .02+  .01-    260901 O18  .04-  .06+    
260809 F52  .03+  .06+    260826 O18  .01+  .11-    

Ephemerides (geocentric):
Date (UTC) HH   RA             Dec           delta  r     elong  mag " sig PA
---- --------  ------------   ------------  ------ ------ -----  --- --------
2026 09 02 16  23 28 43.382   +05 41 02.58  .63271 1.6239 162.7 20.7 .185  74
2026 09 02 17  23 28 41.769   +05 41 17.40  .63271 1.6239 162.7 20.7 .185  74
2026 09 02 18  23 28 40.155   +05 41 32.18  .63270 1.6240 162.8 20.7 .186  74
2026 09 02 19  23 28 38.539   +05 41 46.93  .63269 1.6241 162.8 20.7 .187  74
2026 09 02 20  23 28 36.922   +05 42 01.66  .63269 1.6241 162.8 20.7 .188  74
2026 09 02 21  23 28 35.303   +05 42 16.35  .63268 1.6242 162.9 20.7 .189  74
2026 09 02 22  23 28 33.682   +05 42 31.02  .63268 1.6242 162.9 20.7 .190  74
2026 09 02 23  23 28 32.060   +05 42 45.65  .63268 1.6243 162.9 20.7 .191  74
2026 09 03 00  23 28 30.436   +05 43 00.26  .63267 1.6244 163.0 20.7 .191  74
2026 09 03 01  23 28 28.810   +05 43 14.83  .63267 1.6244 163.0 20.7 .192  74
2026 09 03 02  23 28 27.183   +05 43 29.38  .63266 1.6245 163.0 20.7 .193  74
2026 09 03 03  23 28 25.554   +05 43 43.90  .63266 1.6245 163.1 20.7 .194  74
2026 09 03 04  23 28 23.924   +05 43 58.39  .63266 1.6246 163.1 20.7 .195  74
2026 09 03 05  23 28 22.292   +05 44 12.85  .63266 1.6247 163.1 20.7 .196  74
2026 09 03 06  23 28 20.659   +05 44 27.28  .63265 1.6247 163.2 20.7 .197  74
2026 09 03 07  23 28 19.024   +05 44 41.68  .63265 1.6248 163.2 20.7 .198  74
2026 09 03 08  23 28 17.388   +05 44 56.05  .63265 1.6248 163.3 20.7 .199  74
2026 09 03 09  23 28 15.750   +05 45 10.39  .63265 1.6249 163.3 20.7 .199  74
2026 09 03 10  23 28 14.110   +05 45 24.70  .63265 1.6250 163.3 20.7 .200  74
2026 09 03 11  23 28 12.469   +05 45 38.99  .63265 1.6250 163.4 20.7 .201  74
2026 09 03 12  23 28 10.826   +05 45 53.24  .63265 1.6251 163.4 20.7 .202  74
2026 09 03 13  23 28 09.182   +05 46 07.46  .63265 1.6251 163.4 20.7 .203  74
2026 09 03 14  23 28 07.536   +05 46 21.66  .63265 1.6252 163.5 20.7 .204  74
2026 09 03 15  23 28 05.889   +05 46 35.83  .63265 1.6253 163.5 20.7 .205  74
2026 09 03 16  23 28 04.241   +05 46 49.96  .63265 1.6253 163.5 20.7 .206  74
2026 09 03 17  23 28 02.591   +05 47 04.07  .63265 1.6254 163.6 20.7 .207  74
2026 09 03 18  23 28 00.939   +05 47 18.14  .63265 1.6254 163.6 20.7 .207  74
2026 09 03 19  23 27 59.286   +05 47 32.19  .63266 1.6255 163.6 20.7 .208  74
2026 09 03 20  23 27 57.632   +05 47 46.21  .63266 1.6256 163.7 20.7 .209  74
2026 09 03 21  23 27 55.976   +05 48 00.20  .63266 1.6256 163.7 20.7 .210  74
2026 09 03 22  23 27 54.318   +05 48 14.16  .63266 1.6257 163.7 20.7 .211  74
2026 09 03 23  23 27 52.659   +05 48 28.09  .63267 1.6257 163.8 20.7 .212  74
2026 09 04 00  23 27 50.999   +05 48 41.99  .63267 1.6258 163.8 20.7 .213  74
2026 09 04 01  23 27 49.338   +05 48 55.86  .63267 1.6259 163.9 20.7 .214  74
2026 09 04 02  23 27 47.675   +05 49 09.71  .63268 1.6259 163.9 20.7 .215  74
2026 09 04 03  23 27 46.010   +05 49 23.52  .63268 1.6260 163.9 20.7 .216  74
2026 09 04 04  23 27 44.344   +05 49 37.30  .63269 1.6260 164.0 20.7 .216  73
2026 09 04 05  23 27 42.677   +05 49 51.06  .63269 1.6261 164.0 20.7 .217  73
2026 09 04 06  23 27 41.008   +05 50 04.78  .63270 1.6262 164.0 20.7 .218  73
2026 09 04 07  23 27 39.338   +05 50 18.48  .63270 1.6262 164.1 20.7 .219  73
2026 09 04 08  23 27 37.667   +05 50 32.14  .63271 1.6263 164.1 20.7 .220  73
2026 09 04 09  23 27 35.994   +05 50 45.78  .63271 1.6263 164.1 20.7 .221  73
2026 09 04 10  23 27 34.320   +05 50 59.39  .63272 1.6264 164.2 20.7 .222  73
2026 09 04 11  23 27 32.645   +05 51 12.97  .63273 1.6265 164.2 20.7 .223  73
2026 09 04 12  23 27 30.968   +05 51 26.52  .63273 1.6265 164.2 20.7 .224  73
2026 09 04 13  23 27 29.290   +05 51 40.04  .63274 1.6266 164.3 20.7 .225  73
2026 09 04 14  23 27 27.611   +05 51 53.53  .63275 1.6266 164.3 20.7 .226  73
2026 09 04 15  23 27 25.930   +05 52 06.99  .63276 1.6267 164.3 20.7 .226  73